Simultaneous Nadir Overpasses (SNOs) Predictions

Prediction of SNOs between NOAA-19 and NPP Satellite Orbit:

Table of predicted SNOs for the next 14.0 days since TLE Epoch: 11/17/2016
Index Date (NOAA-19) Time (NOAA-19) Lat,Lon (NOAA-19) SZA (NOAA-19 ) Date (NPP) Time (NPP) Lat,Lon (NPP) SZA (NPP ) Distance(km) Time Diff (sec)
1 11/28/2016 15:10:02 80.94, -99.33 105.31 11/28/2016 15:11:14 80.94, -99.48 105.29 2.62 72
2 11/28/2016 16:01:01 -80.94, 67.88 74.68 11/28/2016 16:01:59 -80.94, 67.94 74.72 1.12 58
3 11/28/2016 16:52:04 80.94,-124.90 105.33 11/28/2016 16:52:44 80.94,-124.89 105.31 0.52 40
4 11/28/2016 17:43:02 -80.94, 42.69 74.70 11/28/2016 17:43:29 -80.94, 42.53 74.70 2.88 27
5 11/28/2016 18:34:06 80.94,-150.47 105.35 11/28/2016 18:34:14 80.94,-150.30 105.33 2.97 8
6 11/28/2016</
